Tracking 35274 objects as of 10-Sep-2026
HD Live streaming from Space Station
objects crossing your sky now

STARLINK-34674

Track STARLINK-34674 now!
10-day predictions
STARLINK-34674 is classified as:


NORAD ID: 65526
Int'l Code: 2025-200G
Launch date: September 6, 2025
Source: United States (US)
Launch site: AIR FORCE EASTERN TEST RANGE (AFETR)
Your satellite tracking list
Your tracking list is empty




NASA's NSSDC Master Catalog

Two Line Element Set (TLE):
1 65526U 25200G   26252.43364833  .00017680  00000-0  54890-3 0  9995
2 65526  97.2842 318.9557 0000862 108.0800 252.0537 15.33432858 56950
Source of the keplerian elements: AFSPC